West Memphis, AR

6:58 PM CDT on April 23, 2017 (GMT -0500)
West Memphis Municipal

Weather History for KAWM - August, 2013

Change the Weather History Date:

Monday, August 19, 2013

  Actual Average Record
Temperature  
Mean Temperature 76 °F -  
Max Temperature 87 °F 90 °F 98 °F (2005)
Min Temperature 64 °F 70 °F 57 °F (1991)
Cooling Degree Days 10    
Growing Degree Days 26 (Base 50)    
Moisture  
Dew Point 67 °F    
Average Humidity 82    
Maximum Humidity 100    
Minimum Humidity 51    
Precipitation  
Precipitation 0.00 in - - ()
Sea Level Pressure  
Sea Level Pressure 30.06 in    
Wind  
Wind Speed 2 mph (NNE)    
Max Wind Speed 9 mph    
Max Gust Speed -    
Visibility 8 miles    
Events Fog    
Averages and records for this station are not official NWS values.
T = Trace of Precipitation, MM = Missing Value Source: NWS Daily Summary

Daily Weather History Graph

Daily Weather History Graph

Search for Another Location

Airport or City:

Trip Planner

Search our weather history database for the weather conditions in past years. The results will help you decide how hot, cold, wet, or windy it might be!

Date:

Astronomy

Aug. 19, 2013 Rise Set
Actual Time 6:23 AM CDT 7:44 PM CDT
Civil Twilight 5:57 AM CDT 8:10 PM CDT
Nautical Twilight 5:25 AM CDT 8:42 PM CDT
Astronomical Twilight 4:52 AM CDT 9:15 PM CDT
Moon 6:35 PM CDT (8/19) 4:44 AM CDT (8/19)
Length of Visible Light 14h 13m
Length of Day
13h 20m
Waxing Gibbous, 97% of the Moon is Illuminated
Aug 19
Waxing Gibbous
Aug 20
Full
Aug 28
Last Quarter
Sep 5
New
Sep 12
First Quarter

Hourly Weather History & Observations

Time (CDT) Temp. Heat Index Dew Point Humidity Pressure Visibility Wind Dir Wind Speed Gust Speed Precip Events Conditions
12:53 AM 69.1 °F - 66.9 °F 93% 30.06 in 10.0 mi Calm Calm - N/A   Clear
1:53 AM 68.0 °F - 66.0 °F 93% 30.05 in 10.0 mi Calm Calm - N/A   Clear
2:53 AM 66.9 °F - 64.9 °F 93% 30.06 in 10.0 mi East 3.5 mph - N/A   Clear
3:53 AM 66.0 °F - 64.9 °F 96% 30.06 in 10.0 mi Calm Calm - N/A   Clear
4:53 AM 66.0 °F - 64.9 °F 96% 30.05 in 6.0 mi Calm Calm - N/A   Clear
5:44 AM 64.4 °F - 64.4 °F 100% 30.08 in 1.8 mi Calm Calm - N/A   Clear
5:51 AM 64.4 °F - 64.4 °F 100% 30.07 in 0.8 mi Calm Calm - N/A   Mist
5:53 AM 64.0 °F - 64.0 °F 100% 30.06 in 0.5 mi Calm Calm - N/A Fog Fog
6:16 AM 64.4 °F - 64.4 °F 100% 30.07 in 1.0 mi Calm Calm - N/A   Mist
6:26 AM 64.4 °F - 64.4 °F 100% 30.08 in 0.8 mi Calm Calm - N/A   Clear
6:34 AM 64.4 °F - 64.4 °F 100% 30.08 in 2.5 mi Calm Calm - N/A   Clear
6:45 AM 64.4 °F - 64.4 °F 100% 30.08 in 0.8 mi Calm Calm - N/A   Clear
6:53 AM 66.0 °F - 66.0 °F 100% 30.07 in 1.0 mi Calm Calm - N/A   Clear
6:59 AM 66.2 °F - 66.2 °F 100% 30.08 in 3.0 mi Calm Calm - N/A   Clear
7:53 AM 69.1 °F - 69.1 °F 100% 30.08 in 10.0 mi Calm Calm - N/A   Clear
8:49 AM 73.4 °F - 69.8 °F 88% 30.09 in 10.0 mi NNW 3.5 mph - N/A   Partly Cloudy
8:53 AM 73.9 °F - 70.0 °F 87% 30.08 in 10.0 mi Variable 3.5 mph - N/A   Partly Cloudy
9:53 AM 78.1 °F - 70.0 °F 76% 30.09 in 10.0 mi Variable 5.8 mph - N/A   Mostly Cloudy
10:22 AM 80.6 °F 83.9 °F 69.8 °F 70% 30.10 in 10.0 mi NNE 4.6 mph - N/A   Scattered Clouds
10:53 AM 81.0 °F 84.4 °F 70.0 °F 69% 30.09 in 10.0 mi NNE 4.6 mph - N/A   Scattered Clouds
11:00 AM 80.6 °F 83.9 °F 69.8 °F 70% 30.10 in 10.0 mi NNE 4.6 mph - N/A   Mostly Cloudy
11:13 AM 80.6 °F 83.9 °F 69.8 °F 70% 30.10 in 10.0 mi NNE 5.8 mph - N/A   Mostly Cloudy
11:53 AM 82.9 °F 85.8 °F 68.0 °F 60% 30.08 in 10.0 mi NNE 3.5 mph - N/A   Scattered Clouds
12:53 PM 82.9 °F 85.8 °F 68.0 °F 60% 30.06 in 10.0 mi North 8.1 mph - N/A   Mostly Cloudy
1:53 PM 82.9 °F 85.8 °F 68.0 °F 60% 30.05 in 10.0 mi ENE 6.9 mph - N/A   Mostly Cloudy
2:53 PM 84.9 °F 87.6 °F 66.9 °F 55% 30.03 in 10.0 mi NE 4.6 mph - N/A   Mostly Cloudy
3:53 PM 87.1 °F 89.9 °F 66.9 °F 51% 30.01 in 10.0 mi Calm Calm - N/A   Clear
4:53 PM 87.1 °F 89.9 °F 66.9 °F 51% 30.00 in 10.0 mi North 8.1 mph - N/A   Scattered Clouds
5:53 PM 84.9 °F 87.6 °F 66.9 °F 55% 30.00 in 10.0 mi North 9.2 mph - N/A   Clear
6:53 PM 82.9 °F 85.8 °F 68.0 °F 60% 30.00 in 10.0 mi North 5.8 mph - N/A   Clear
7:53 PM 78.1 °F - 66.9 °F 68% 30.00 in 10.0 mi NE 4.6 mph - N/A   Clear
8:53 PM 75.9 °F - 68.0 °F 76% 30.01 in 10.0 mi Calm Calm - N/A   Clear
9:53 PM 73.9 °F - 68.0 °F 82% 30.02 in 10.0 mi NE 3.5 mph - N/A   Clear
10:53 PM 72.0 °F - 68.0 °F 87% 30.03 in 10.0 mi NNE 3.5 mph - N/A   Clear
11:53 PM 71.1 °F - 69.1 °F 93% 30.03 in 10.0 mi Calm Calm - N/A   Clear